Location: Newark
(49.2191°N, 12.6671°E)
Time: 15:22:08
(UTC+00:00)

Transit 4A - Pass Details

Date: 25 January 2020
Orbit: 872 x 973 km, 66.8° (Epoch: 26 February)

Event Time Altitude Azimuth Distance (km) Brightness Sun altitude
Rises 09:41:25 0° 297° (WNW) 3,502 10.5 18.2°
Reaches altitude 10° 09:45:18 10° 322° (NW) 2,548 9.7 18.5°
Maximum altitude 09:48:20 14° 353° (N) 2,251 9.5 18.7°
Drops below altitude 10° 09:51:22 10° 25° (NNE) 2,534 9.9 18.9°
Sets 09:55:12 0° 50° (NE) 3,470 10.7 19.1°
